Time,TemperatureF,DewpointF,PressureIn,WindDirection,WindDirectionDegrees,WindSpeedMPH,WindSpeedGustMPH,Humidity,HourlyPrecipIn,Conditions,Clouds,dailyrainin,SoftwareType,DateUTC
2013-02-01 00:05:00,52.2,36.0,30.08,East,93,0.0,0.0,54,0.00,,,0.00,Wunderground v.1.15,2013-02-01 08:05:00,
2013-02-01 00:11:00,52.3,35.7,30.08,East,101,0.0,0.0,53,0.00,,,0.00,Wunderground v.1.15,2013-02-01 08:11:00,
2013-02-01 00:16:00,52.3,35.7,30.08,ESE,102,0.0,0.0,53,0.00,,,0.00,Wunderground v.1.15,2013-02-01 08:16:00,
2013-02-01 00:21:00,52.2,35.6,30.08,ESE,103,0.0,0.0,53,0.00,,,0.00,Wunderground v.1.15,2013-02-01 08:21:00,
2013-02-01 00:27:00,52.2,35.6,30.08,ESE,119,0.0,0.0,53,0.00,,,0.00,Wunderground v.1.15,2013-02-01 08:27:00,
2013-02-01 00:32:00,52.3,35.7,30.08,East,101,0.0,0.0,53,0.00,,,0.00,Wunderground v.1.15,2013-02-01 08:32:00,
2013-02-01 00:37:00,52.2,35.6,30.08,East,101,0.0,0.0,53,0.00,,,0.00,Wunderground v.1.15,2013-02-01 08:37:00,
2013-02-01 00:43:00,52.2,35.6,30.08,ESE,103,0.0,0.0,53,0.00,,,0.00,Wunderground v.1.15,2013-02-01 08:43:00,
2013-02-01 00:49:00,52.4,35.8,30.08,ESE,115,0.0,0.0,53,0.00,,,0.00,Wunderground v.1.15,2013-02-01 08:49:00,
2013-02-01 00:54:00,51.9,35.8,30.09,ESE,117,0.0,0.0,54,0.00,,,0.00,Wunderground v.1.15,2013-02-01 08:54:00,
2013-02-01 01:00:00,51.3,35.7,30.09,ESE,117,0.0,0.0,55,0.00,,,0.00,Wunderground v.1.15,2013-02-01 09:00:00,
2013-02-01 01:05:00,50.5,35.4,30.09,ESE,117,0.0,0.0,56,0.00,,,0.00,Wunderground v.1.15,2013-02-01 09:05:00,
2013-02-01 01:10:00,49.3,35.1,30.10,ESE,117,0.0,0.0,58,0.00,,,0.00,Wunderground v.1.15,2013-02-01 09:10:00,
2013-02-01 01:15:00,48.2,34.5,30.10,ESE,117,0.0,0.0,59,0.00,,,0.00,Wunderground v.1.15,2013-02-01 09:15:00,
2013-02-01 01:21:00,47.3,34.5,30.11,ESE,117,0.0,0.0,61,0.00,,,0.00,Wunderground v.1.15,2013-02-01 09:21:00,
2013-02-01 01:26:00,46.7,34.4,30.11,ESE,117,0.0,0.0,62,0.00,,,0.00,Wunderground v.1.15,2013-02-01 09:26:00,
2013-02-01 01:31:00,46.3,34.4,30.11,ESE,117,0.0,0.0,63,0.00,,,0.00,Wunderground v.1.15,2013-02-01 09:31:00,
2013-02-01 01:36:00,45.9,34.4,30.11,ESE,117,0.0,0.0,64,0.00,,,0.00,Wunderground v.1.15,2013-02-01 09:36:00,
2013-02-01 01:42:00,45.5,34.4,30.11,ESE,117,0.0,0.0,65,0.00,,,0.00,Wunderground v.1.15,2013-02-01 09:42:00,
2013-02-01 01:47:00,44.9,34.2,30.11,ESE,117,0.0,0.0,66,0.00,,,0.00,Wunderground v.1.15,2013-02-01 09:47:00,
2013-02-01 01:53:00,44.1,34.2,30.12,ESE,117,0.0,0.0,68,0.00,,,0.00,Wunderground v.1.15,2013-02-01 09:53:00,
2013-02-01 01:58:00,43.3,33.8,30.12,ESE,115,0.0,0.0,69,0.00,,,0.00,Wunderground v.1.15,2013-02-01 09:58:00,
2013-02-01 02:03:00,42.5,33.8,30.12,ESE,117,0.0,0.0,71,0.00,,,0.00,Wunderground v.1.15,2013-02-01 10:03:00,
2013-02-01 02:08:00,41.9,33.5,30.12,ESE,117,0.0,0.0,72,0.00,,,0.00,Wunderground v.1.15,2013-02-01 10:08:00,
2013-02-01 02:13:00,41.5,33.8,30.12,ESE,117,0.0,0.0,74,0.00,,,0.00,Wunderground v.1.15,2013-02-01 10:13:00,
2013-02-01 02:18:00,41.1,33.8,30.12,ESE,117,0.0,0.0,75,0.00,,,0.00,Wunderground v.1.15,2013-02-01 10:18:00,
2013-02-01 02:23:00,40.9,33.9,30.12,ESE,117,0.0,0.0,76,0.00,,,0.00,Wunderground v.1.15,2013-02-01 10:23:00,
2013-02-01 02:28:00,40.9,33.9,30.11,ESE,117,0.0,0.0,76,0.00,,,0.00,Wunderground v.1.15,2013-02-01 10:28:00,
2013-02-01 02:33:00,40.7,33.7,30.11,ESE,117,0.0,0.0,76,0.00,,,0.00,Wunderground v.1.15,2013-02-01 10:33:00,
2013-02-01 02:38:00,40.4,33.8,30.11,ESE,115,0.0,0.0,77,0.00,,,0.00,Wunderground v.1.15,2013-02-01 10:38:00,
2013-02-01 02:43:00,40.1,33.5,30.11,ESE,116,0.0,0.0,77,0.00,,,0.00,Wunderground v.1.15,2013-02-01 10:43:00,
2013-02-01 02:48:00,39.7,33.4,30.11,ESE,116,0.0,0.0,78,0.00,,,0.00,Wunderground v.1.15,2013-02-01 10:48:00,
2013-02-01 02:53:00,39.5,33.5,30.11,ESE,117,0.0,0.0,79,0.00,,,0.00,Wunderground v.1.15,2013-02-01 10:53:00,
2013-02-01 02:58:00,39.4,33.4,30.11,ESE,117,0.0,0.0,79,0.00,,,0.00,Wunderground v.1.15,2013-02-01 10:58:00,
2013-02-01 03:03:00,39.3,33.3,30.11,ESE,117,0.0,0.0,79,0.00,,,0.00,Wunderground v.1.15,2013-02-01 11:03:00,
2013-02-01 03:09:00,39.3,33.3,30.11,ESE,117,0.0,0.0,79,0.00,,,0.00,Wunderground v.1.15,2013-02-01 11:09:00,
2013-02-01 03:14:00,39.3,33.3,30.11,ESE,117,0.0,0.0,79,0.00,,,0.00,Wunderground v.1.15,2013-02-01 11:14:00,
2013-02-01 03:19:00,39.1,33.1,30.11,ESE,117,0.0,0.0,79,0.00,,,0.00,Wunderground v.1.15,2013-02-01 11:19:00,
2013-02-01 03:24:00,39.1,33.1,30.11,ESE,117,0.0,0.0,79,0.00,,,0.00,Wunderground v.1.15,2013-02-01 11:24:00,
2013-02-01 03:29:00,38.9,32.9,30.11,ESE,117,0.0,0.0,79,0.00,,,0.00,Wunderground v.1.15,2013-02-01 11:29:00,
2013-02-01 03:34:00,38.7,32.7,30.12,ESE,117,0.0,0.0,79,0.00,,,0.00,Wunderground v.1.15,2013-02-01 11:34:00,
2013-02-01 03:39:00,38.5,32.9,30.12,NW,323,0.0,0.0,80,0.00,,,0.00,Wunderground v.1.15,2013-02-01 11:39:00,
2013-02-01 03:44:00,38.8,33.2,30.12,NW,323,0.0,0.0,80,0.00,,,0.00,Wunderground v.1.15,2013-02-01 11:44:00,
2013-02-01 03:49:00,39.1,33.1,30.12,NW,323,0.0,0.0,79,0.00,,,0.00,Wunderground v.1.15,2013-02-01 11:49:00,
2013-02-01 03:54:00,39.5,33.5,30.11,NW,323,0.0,0.0,79,0.00,,,0.00,Wunderground v.1.15,2013-02-01 11:54:00,
2013-02-01 03:59:00,39.7,33.4,30.11,NW,323,0.0,0.0,78,0.00,,,0.00,Wunderground v.1.15,2013-02-01 11:59:00,
2013-02-01 04:04:00,39.7,33.4,30.12,NW,323,0.0,0.0,78,0.00,,,0.00,Wunderground v.1.15,2013-02-01 12:04:00,
2013-02-01 04:09:00,39.7,33.4,30.12,NW,323,0.0,0.0,78,0.00,,,0.00,Wunderground v.1.15,2013-02-01 12:09:00,
2013-02-01 04:15:00,39.6,33.3,30.12,NW,323,0.0,0.0,78,0.00,,,0.00,Wunderground v.1.15,2013-02-01 12:15:00,
2013-02-01 04:20:00,39.5,33.2,30.12,NW,323,0.0,0.0,78,0.00,,,0.00,Wunderground v.1.15,2013-02-01 12:20:00,
2013-02-01 04:25:00,39.4,33.1,30.12,NW,323,0.0,0.0,78,0.00,,,0.00,Wunderground v.1.15,2013-02-01 12:25:00,
2013-02-01 04:30:00,39.4,33.1,30.12,NW,323,0.0,0.0,78,0.00,,,0.00,Wunderground v.1.15,2013-02-01 12:30:00,
2013-02-01 04:35:00,39.1,32.8,30.12,NW,323,0.0,0.0,78,0.00,,,0.00,Wunderground v.1.15,2013-02-01 12:35:00,
2013-02-01 04:40:00,38.9,32.6,30.12,NW,323,0.0,0.0,78,0.00,,,0.00,Wunderground v.1.15,2013-02-01 12:40:00,
2013-02-01 04:45:00,38.7,32.4,30.12,NW,323,0.0,0.0,78,0.00,,,0.00,Wunderground v.1.15,2013-02-01 12:45:00,
2013-02-01 04:50:00,38.4,32.5,30.12,NW,323,0.0,0.0,79,0.00,,,0.00,Wunderground v.1.15,2013-02-01 12:50:00,
2013-02-01 04:56:00,38.2,32.3,30.12,NW,323,0.0,0.0,79,0.00,,,0.00,Wunderground v.1.15,2013-02-01 12:56:00,
2013-02-01 05:01:00,38.3,32.7,30.12,NW,323,0.0,0.0,80,0.00,,,0.00,Wunderground v.1.15,2013-02-01 13:01:00,
2013-02-01 05:06:00,38.5,32.9,30.13,NW,323,0.0,0.0,80,0.00,,,0.00,Wunderground v.1.15,2013-02-01 13:06:00,
2013-02-01 05:11:00,38.7,32.7,30.13,NW,323,0.0,0.0,79,0.00,,,0.00,Wunderground v.1.15,2013-02-01 13:11:00,
2013-02-01 05:16:00,39.0,32.7,30.13,NW,323,0.0,0.0,78,0.00,,,0.00,Wunderground v.1.15,2013-02-01 13:16:00,
2013-02-01 05:21:00,39.3,32.7,30.14,NW,323,0.0,0.0,77,0.00,,,0.00,Wunderground v.1.15,2013-02-01 13:21:00,
2013-02-01 05:26:00,39.7,33.1,30.13,NW,323,0.0,0.0,77,0.00,,,0.00,Wunderground v.1.15,2013-02-01 13:26:00,
2013-02-01 05:31:00,40.2,33.2,30.13,NW,323,0.0,0.0,76,0.00,,,0.00,Wunderground v.1.15,2013-02-01 13:31:00,
2013-02-01 05:36:00,40.4,32.8,30.14,NW,323,0.0,0.0,74,0.00,,,0.00,Wunderground v.1.15,2013-02-01 13:36:00,
2013-02-01 05:41:00,40.3,32.7,30.14,NW,323,0.0,0.0,74,0.00,,,0.00,Wunderground v.1.15,2013-02-01 13:41:00,
2013-02-01 05:46:00,40.2,32.6,30.14,NW,323,0.0,0.0,74,0.00,,,0.00,Wunderground v.1.15,2013-02-01 13:46:00,
2013-02-01 05:51:00,40.0,32.7,30.15,NW,323,0.0,0.0,75,0.00,,,0.00,Wunderground v.1.15,2013-02-01 13:51:00,
2013-02-01 05:56:00,39.7,32.4,30.15,NW,323,0.0,0.0,75,0.00,,,0.00,Wunderground v.1.15,2013-02-01 13:56:00,
2013-02-01 06:01:00,39.2,32.3,30.16,NW,323,0.0,0.0,76,0.00,,,0.00,Wunderground v.1.15,2013-02-01 14:01:00,
2013-02-01 06:06:00,38.8,32.2,30.16,NW,323,0.0,0.0,77,0.00,,,0.00,Wunderground v.1.15,2013-02-01 14:06:00,
2013-02-01 06:11:00,38.6,32.3,30.16,NW,323,0.0,0.0,78,0.00,,,0.00,Wunderground v.1.15,2013-02-01 14:11:00,
2013-02-01 06:16:00,38.4,32.5,30.17,NW,323,0.0,0.0,79,0.00,,,0.00,Wunderground v.1.15,2013-02-01 14:16:00,
2013-02-01 06:21:00,38.6,32.6,30.16,NW,323,0.0,0.0,79,0.00,,,0.00,Wunderground v.1.15,2013-02-01 14:21:00,
2013-02-01 06:26:00,38.7,32.4,30.17,NW,323,0.0,0.0,78,0.00,,,0.00,Wunderground v.1.15,2013-02-01 14:26:00,
2013-02-01 06:31:00,39.2,32.9,30.16,NW,323,0.0,0.0,78,0.00,,,0.00,Wunderground v.1.15,2013-02-01 14:31:00,
2013-02-01 06:36:00,39.4,32.8,30.16,NW,323,0.0,0.0,77,0.00,,,0.00,Wunderground v.1.15,2013-02-01 14:36:00,
2013-02-01 06:41:00,39.4,32.8,30.16,NW,323,0.0,0.0,77,0.00,,,0.00,Wunderground v.1.15,2013-02-01 14:41:00,
2013-02-01 06:46:00,39.2,32.6,30.16,NW,323,0.0,0.0,77,0.00,,,0.00,Wunderground v.1.15,2013-02-01 14:46:00,
2013-02-01 06:51:00,38.9,32.3,30.16,NW,323,0.0,0.0,77,0.00,,,0.00,Wunderground v.1.15,2013-02-01 14:51:00,
2013-02-01 06:56:00,38.8,32.5,30.16,NW,323,0.0,0.0,78,0.00,,,0.00,Wunderground v.1.15,2013-02-01 14:56:00,
2013-02-01 07:01:00,39.0,32.7,30.16,NW,323,0.0,0.0,78,0.00,,,0.00,Wunderground v.1.15,2013-02-01 15:01:00,
2013-02-01 07:06:00,39.0,32.7,30.16,NW,323,0.0,0.0,78,0.00,,,0.00,Wunderground v.1.15,2013-02-01 15:06:00,
2013-02-01 07:11:00,38.9,32.6,30.16,NW,323,0.0,0.0,78,0.00,,,0.00,Wunderground v.1.15,2013-02-01 15:11:00,
2013-02-01 07:16:00,39.2,33.2,30.16,NW,323,0.0,0.0,79,0.00,,,0.00,Wunderground v.1.15,2013-02-01 15:16:00,
2013-02-01 07:21:00,40.0,34.0,30.16,NW,323,0.0,0.0,79,0.00,,,0.00,Wunderground v.1.15,2013-02-01 15:21:00,
2013-02-01 07:26:00,41.0,34.7,30.15,NW,323,0.0,0.0,78,0.00,,,0.00,Wunderground v.1.15,2013-02-01 15:26:00,
2013-02-01 07:31:00,41.9,35.2,30.15,NW,323,0.0,0.0,77,0.00,,,0.00,Wunderground v.1.15,2013-02-01 15:31:00,
2013-02-01 07:36:00,42.8,35.4,30.15,NW,323,0.0,0.0,75,0.00,,,0.00,Wunderground v.1.15,2013-02-01 15:36:00,
2013-02-01 07:41:00,44.3,36.5,30.14,NW,323,0.0,0.0,74,0.00,,,0.00,Wunderground v.1.15,2013-02-01 15:41:00,
2013-02-01 07:46:00,45.6,36.7,30.13,NW,323,0.0,0.0,71,0.00,,,0.00,Wunderground v.1.15,2013-02-01 15:46:00,
2013-02-01 07:51:00,47.3,36.9,30.13,NW,323,0.0,0.0,67,0.00,,,0.00,Wunderground v.1.15,2013-02-01 15:51:00,
2013-02-01 07:56:00,49.2,37.1,30.13,NW,323,0.0,0.0,63,0.00,,,0.00,Wunderground v.1.15,2013-02-01 15:56:00,
2013-02-01 08:01:00,51.3,37.0,30.13,NW,323,0.0,0.0,58,0.00,,,0.00,Wunderground v.1.15,2013-02-01 16:01:00,
2013-02-01 08:06:00,53.2,37.0,30.12,NW,323,0.0,0.0,54,0.00,,,0.00,Wunderground v.1.15,2013-02-01 16:06:00,
2013-02-01 08:11:00,55.1,36.8,30.12,NW,323,0.0,0.0,50,0.00,,,0.00,Wunderground v.1.15,2013-02-01 16:11:00,
2013-02-01 08:16:00,56.9,35.2,30.12,NE,39,0.0,5.0,44,0.00,,,0.00,Wunderground v.1.15,2013-02-01 16:16:00,
2013-02-01 08:21:00,58.4,35.4,30.12,NE,39,0.0,0.0,42,0.00,,,0.00,Wunderground v.1.15,2013-02-01 16:21:00,
2013-02-01 08:26:00,59.4,35.7,30.12,North,360,0.0,0.0,41,0.00,,,0.00,Wunderground v.1.15,2013-02-01 16:26:00,
2013-02-01 08:31:00,60.7,35.6,30.12,ESE,103,0.0,0.0,39,0.00,,,0.00,Wunderground v.1.15,2013-02-01 16:31:00,
2013-02-01 08:36:00,61.5,34.3,30.11,East,100,1.0,5.0,36,0.00,,,0.00,Wunderground v.1.15,2013-02-01 16:36:00,
2013-02-01 08:41:00,61.8,33.8,30.11,ESE,119,0.0,5.0,35,0.00,,,0.00,Wunderground v.1.15,2013-02-01 16:41:00,
2013-02-01 08:46:00,62.3,35.0,30.11,East,92,0.0,5.0,36,0.00,,,0.00,Wunderground v.1.15,2013-02-01 16:46:00,
2013-02-01 08:51:00,62.6,34.5,30.11,ESE,115,0.0,5.0,35,0.00,,,0.00,Wunderground v.1.15,2013-02-01 16:51:00,
2013-02-01 08:56:00,62.7,34.6,30.11,ENE,72,1.0,5.0,35,0.00,,,0.00,Wunderground v.1.15,2013-02-01 16:56:00,
2013-02-01 09:01:00,62.5,34.5,30.11,East,79,0.0,6.0,35,0.00,,,0.00,Wunderground v.1.15,2013-02-01 17:01:00,
2013-02-01 09:06:00,62.7,35.3,30.11,SE,130,0.0,6.0,36,0.00,,,0.00,Wunderground v.1.15,2013-02-01 17:06:00,
2013-02-01 09:11:00,62.7,34.6,30.11,NE,53,0.0,6.0,35,0.00,,,0.00,Wunderground v.1.15,2013-02-01 17:11:00,
2013-02-01 09:16:00,62.6,34.5,30.11,East,95,0.0,6.0,35,0.00,,,0.00,Wunderground v.1.15,2013-02-01 17:16:00,
2013-02-01 09:22:00,62.4,34.4,30.11,ESE,112,0.0,6.0,35,0.00,,,0.00,Wunderground v.1.15,2013-02-01 17:22:00,
2013-02-01 09:27:00,62.1,34.1,30.12,ESE,114,0.0,11.0,35,0.00,,,0.00,Wunderground v.1.15,2013-02-01 17:27:00,
2013-02-01 09:32:00,62.0,34.0,30.12,ESE,113,2.0,6.0,35,0.00,,,0.00,Wunderground v.1.15,2013-02-01 17:32:00,
2013-02-01 09:37:00,62.2,34.9,30.12,East,98,0.0,7.0,36,0.00,,,0.00,Wunderground v.1.15,2013-02-01 17:37:00,
2013-02-01 09:42:00,62.7,34.6,30.12,East,97,0.0,4.0,35,0.00,,,0.00,Wunderground v.1.15,2013-02-01 17:42:00,
2013-02-01 09:47:00,62.9,34.8,30.12,ESE,123,3.0,6.0,35,0.00,,,0.00,Wunderground v.1.15,2013-02-01 17:47:00,
2013-02-01 09:52:00,63.0,34.9,30.12,East,101,1.0,5.0,35,0.00,,,0.00,Wunderground v.1.15,2013-02-01 17:52:00,
2013-02-01 09:57:00,63.2,35.1,30.12,ENE,76,4.0,6.0,35,0.00,,,0.00,Wunderground v.1.15,2013-02-01 17:57:00,
2013-02-01 10:02:00,63.3,35.2,30.12,ENE,69,0.0,9.0,35,0.00,,,0.00,Wunderground v.1.15,2013-02-01 18:02:00,
2013-02-01 10:07:00,63.6,35.4,30.12,East,90,2.0,10.0,35,0.00,,,0.00,Wunderground v.1.15,2013-02-01 18:07:00,
2013-02-01 10:12:00,63.8,35.6,30.12,ESE,111,1.0,7.0,35,0.00,,,0.00,Wunderground v.1.15,2013-02-01 18:12:00,
2013-02-01 10:17:00,63.9,36.4,30.12,East,101,0.0,7.0,36,0.00,,,0.00,Wunderground v.1.15,2013-02-01 18:17:00,
2013-02-01 10:22:00,64.4,36.8,30.12,East,98,1.0,5.0,36,0.00,,,0.00,Wunderground v.1.15,2013-02-01 18:22:00,
2013-02-01 10:27:00,64.7,36.4,30.11,East,95,1.0,9.0,35,0.00,,,0.00,Wunderground v.1.15,2013-02-01 18:27:00,
2013-02-01 10:32:00,65.1,36.0,30.11,SE,142,7.0,9.0,34,0.00,,,0.00,Wunderground v.1.15,2013-02-01 18:32:00,
2013-02-01 10:37:00,65.0,35.2,30.11,East,87,3.0,12.0,33,0.00,,,0.00,Wunderground v.1.15,2013-02-01 18:37:00,
2013-02-01 10:42:00,64.7,34.9,30.11,SE,145,10.0,11.0,33,0.00,,,0.00,Wunderground v.1.15,2013-02-01 18:42:00,
2013-02-01 10:47:00,64.7,34.9,30.11,ESE,103,5.0,14.0,33,0.00,,,0.00,Wunderground v.1.15,2013-02-01 18:47:00,
2013-02-01 10:52:00,65.4,35.5,30.10,East,88,2.0,7.0,33,0.00,,,0.00,Wunderground v.1.15,2013-02-01 18:52:00,
2013-02-01 10:57:00,65.6,35.7,30.11,ESE,106,5.0,10.0,33,0.00,,,0.00,Wunderground v.1.15,2013-02-01 18:57:00,
2013-02-01 11:02:00,65.6,35.7,30.11,ESE,109,0.0,11.0,33,0.00,,,0.00,Wunderground v.1.15,2013-02-01 19:02:00,
2013-02-01 11:07:00,66.1,35.4,30.11,SE,125,1.0,11.0,32,0.00,,,0.00,Wunderground v.1.15,2013-02-01 19:07:00,
2013-02-01 11:12:00,66.0,35.3,30.11,SE,128,4.0,7.0,32,0.00,,,0.00,Wunderground v.1.15,2013-02-01 19:12:00,
2013-02-01 11:17:00,65.8,35.9,30.11,ESE,110,0.0,9.0,33,0.00,,,0.00,Wunderground v.1.15,2013-02-01 19:17:00,
2013-02-01 11:22:00,66.4,36.4,30.11,East,87,2.0,7.0,33,0.00,,,0.00,Wunderground v.1.15,2013-02-01 19:22:00,
2013-02-01 11:27:00,66.4,35.6,30.11,ENE,69,3.0,12.0,32,0.00,,,0.00,Wunderground v.1.15,2013-02-01 19:27:00,
2013-02-01 11:32:00,66.5,35.7,30.11,East,98,0.0,3.0,32,0.00,,,0.00,Wunderground v.1.15,2013-02-01 19:32:00,
2013-02-01 11:37:00,66.7,35.9,30.11,East,99,7.0,7.0,32,0.00,,,0.00,Wunderground v.1.15,2013-02-01 19:37:00,
2013-02-01 11:42:00,66.5,34.9,30.11,ESE,121,6.0,14.0,31,0.00,,,0.00,Wunderground v.1.15,2013-02-01 19:42:00,
2013-02-01 11:47:00,66.4,35.6,30.11,ENE,73,0.0,14.0,32,0.00,,,0.00,Wunderground v.1.15,2013-02-01 19:47:00,
2013-02-01 11:52:00,66.7,35.9,30.11,East,95,1.0,10.0,32,0.00,,,0.00,Wunderground v.1.15,2013-02-01 19:52:00,
2013-02-01 11:57:00,67.2,35.5,30.11,ENE,71,0.0,12.0,31,0.00,,,0.00,Wunderground v.1.15,2013-02-01 19:57:00,
2013-02-01 12:02:00,67.2,35.5,30.11,East,83,1.0,10.0,31,0.00,,,0.00,Wunderground v.1.15,2013-02-01 20:02:00,
2013-02-01 12:07:00,67.2,36.3,30.10,ESE,111,3.0,14.0,32,0.00,,,0.00,Wunderground v.1.15,2013-02-01 20:07:00,
2013-02-01 12:12:00,67.1,35.4,30.10,ENE,72,2.0,5.0,31,0.00,,,0.00,Wunderground v.1.15,2013-02-01 20:12:00,
2013-02-01 12:17:00,67.4,36.5,30.10,ESE,110,1.0,6.0,32,0.00,,,0.00,Wunderground v.1.15,2013-02-01 20:17:00,
2013-02-01 12:22:00,67.3,35.6,30.09,East,94,1.0,9.0,31,0.00,,,0.00,Wunderground v.1.15,2013-02-01 20:22:00,
2013-02-01 12:27:00,67.4,34.9,30.09,ENE,71,4.0,9.0,30,0.00,,,0.00,Wunderground v.1.15,2013-02-01 20:27:00,
2013-02-01 12:33:00,67.5,35.8,30.09,ESE,106,3.0,3.0,31,0.00,,,0.00,Wunderground v.1.15,2013-02-01 20:33:00,
2013-02-01 12:38:00,67.6,35.9,30.09,East,99,0.0,6.0,31,0.00,,,0.00,Wunderground v.1.15,2013-02-01 20:38:00,
2013-02-01 12:43:00,67.6,35.9,30.09,SE,130,7.0,7.0,31,0.00,,,0.00,Wunderground v.1.15,2013-02-01 20:43:00,
2013-02-01 12:48:00,67.4,34.9,30.09,ENE,71,1.0,9.0,30,0.00,,,0.00,Wunderground v.1.15,2013-02-01 20:48:00,
2013-02-01 12:53:00,67.5,35.0,30.08,East,80,1.0,5.0,30,0.00,,,0.00,Wunderground v.1.15,2013-02-01 20:53:00,
2013-02-01 12:58:00,67.7,35.1,30.08,SE,134,1.0,9.0,30,0.00,,,0.00,Wunderground v.1.15,2013-02-01 20:58:00,
2013-02-01 13:03:00,67.8,35.2,30.10,ENE,60,0.0,9.0,30,0.00,,,0.00,Wunderground v.1.15,2013-02-01 21:03:00,
2013-02-01 13:08:00,67.9,35.3,30.10,SE,129,3.0,11.0,30,0.00,,,0.00,Wunderground v.1.15,2013-02-01 21:08:00,
2013-02-01 13:13:00,67.9,35.3,30.10,East,98,0.0,5.0,30,0.00,,,0.00,Wunderground v.1.15,2013-02-01 21:13:00,
2013-02-01 13:18:00,68.0,35.4,30.10,SE,125,1.0,5.0,30,0.00,,,0.00,Wunderground v.1.15,2013-02-01 21:18:00,
2013-02-01 13:23:00,68.0,34.5,30.10,East,79,1.0,7.0,29,0.00,,,0.00,Wunderground v.1.15,2013-02-01 21:23:00,
2013-02-01 13:28:00,67.8,35.2,30.10,ENE,65,6.0,7.0,30,0.00,,,0.00,Wunderground v.1.15,2013-02-01 21:28:00,
2013-02-01 13:33:00,67.8,34.4,30.09,East,94,7.0,7.0,29,0.00,,,0.00,Wunderground v.1.15,2013-02-01 21:33:00,
2013-02-01 13:38:00,67.8,34.4,30.09,ESE,116,0.0,7.0,29,0.00,,,0.00,Wunderground v.1.15,2013-02-01 21:38:00,
2013-02-01 13:43:00,67.7,33.4,30.09,NE,46,6.0,13.0,28,0.00,,,0.00,Wunderground v.1.15,2013-02-01 21:43:00,
2013-02-01 13:48:00,67.4,34.0,30.10,ESE,110,3.0,13.0,29,0.00,,,0.00,Wunderground v.1.15,2013-02-01 21:48:00,
2013-02-01 13:53:00,67.4,34.0,30.09,East,99,0.0,9.0,29,0.00,,,0.00,Wunderground v.1.15,2013-02-01 21:53:00,
2013-02-01 13:58:00,67.4,34.0,30.09,East,95,1.0,9.0,29,0.00,,,0.00,Wunderground v.1.15,2013-02-01 21:58:00,
2013-02-01 14:03:00,67.1,34.6,30.11,ESE,122,1.0,6.0,30,0.00,,,0.00,Wunderground v.1.15,2013-02-01 22:03:00,
2013-02-01 14:08:00,66.9,34.4,30.11,SE,136,1.0,6.0,30,0.00,,,0.00,Wunderground v.1.15,2013-02-01 22:08:00,
2013-02-01 14:13:00,66.5,34.1,30.10,SE,128,1.0,5.0,30,0.00,,,0.00,Wunderground v.1.15,2013-02-01 22:13:00,
2013-02-01 14:18:00,66.7,35.1,30.10,ESE,107,0.0,5.0,31,0.00,,,0.00,Wunderground v.1.15,2013-02-01 22:18:00,
2013-02-01 14:23:00,67.3,34.8,30.10,East,101,0.0,6.0,30,0.00,,,0.00,Wunderground v.1.15,2013-02-01 22:23:00,
2013-02-01 14:28:00,67.5,35.0,30.11,East,91,1.0,6.0,30,0.00,,,0.00,Wunderground v.1.15,2013-02-01 22:28:00,
2013-02-01 14:33:00,67.5,34.1,30.11,East,92,3.0,6.0,29,0.00,,,0.00,Wunderground v.1.15,2013-02-01 22:33:00,
2013-02-01 14:38:00,67.3,34.8,30.11,ESE,117,0.0,10.0,30,0.00,,,0.00,Wunderground v.1.15,2013-02-01 22:38:00,
2013-02-01 14:43:00,67.2,34.7,30.11,ESE,117,1.0,6.0,30,0.00,,,0.00,Wunderground v.1.15,2013-02-01 22:43:00,
2013-02-01 14:48:00,67.3,33.9,30.10,ENE,75,1.0,7.0,29,0.00,,,0.00,Wunderground v.1.15,2013-02-01 22:48:00,
2013-02-01 14:53:00,67.6,35.0,30.10,ESE,105,0.0,2.0,30,0.00,,,0.00,Wunderground v.1.15,2013-02-01 22:53:00,
2013-02-01 14:58:00,67.4,34.0,30.10,ENE,59,1.0,6.0,29,0.00,,,0.00,Wunderground v.1.15,2013-02-01 22:58:00,
2013-02-01 15:03:00,66.9,34.4,30.10,ESE,107,1.0,2.0,30,0.00,,,0.00,Wunderground v.1.15,2013-02-01 23:03:00,
2013-02-01 15:08:00,66.9,34.4,30.10,ESE,112,0.0,3.0,30,0.00,,,0.00,Wunderground v.1.15,2013-02-01 23:08:00,
2013-02-01 15:13:00,67.1,33.8,30.10,ESE,122,0.0,5.0,29,0.00,,,0.00,Wunderground v.1.15,2013-02-01 23:13:00,
2013-02-01 15:18:00,67.2,34.7,30.10,ESE,115,0.0,5.0,30,0.00,,,0.00,Wunderground v.1.15,2013-02-01 23:18:00,
2013-02-01 15:23:00,67.2,33.8,30.10,East,88,0.0,7.0,29,0.00,,,0.00,Wunderground v.1.15,2013-02-01 23:23:00,
2013-02-01 15:28:00,66.9,33.6,30.10,ESE,114,0.0,7.0,29,0.00,,,0.00,Wunderground v.1.15,2013-02-01 23:28:00,
2013-02-01 15:33:00,66.7,33.4,30.09,East,98,0.0,5.0,29,0.00,,,0.00,Wunderground v.1.15,2013-02-01 23:33:00,
2013-02-01 15:38:00,66.7,34.3,30.09,ENE,78,0.0,7.0,30,0.00,,,0.00,Wunderground v.1.15,2013-02-01 23:38:00,
2013-02-01 15:43:00,66.3,33.9,30.10,East,90,2.0,3.0,30,0.00,,,0.00,Wunderground v.1.15,2013-02-01 23:43:00,
2013-02-01 15:48:00,65.8,34.3,30.10,ESE,122,1.0,3.0,31,0.00,,,0.00,Wunderground v.1.15,2013-02-01 23:48:00,
2013-02-01 15:53:00,65.5,34.0,30.10,East,94,0.0,4.0,31,0.00,,,0.00,Wunderground v.1.15,2013-02-01 23:53:00,
2013-02-01 15:58:00,65.4,34.8,30.11,ESE,110,0.0,4.0,32,0.00,,,0.00,Wunderground v.1.15,2013-02-01 23:58:00,
2013-02-01 16:04:00,65.2,34.6,30.11,ESE,109,0.0,2.0,32,0.00,,,0.00,Wunderground v.1.15,2013-02-02 00:04:00,
2013-02-01 16:09:00,65.0,34.4,30.11,ESE,122,0.0,4.0,32,0.00,,,0.00,Wunderground v.1.15,2013-02-02 00:09:00,
2013-02-01 16:14:00,65.0,35.2,30.11,ENE,68,0.0,1.0,33,0.00,,,0.00,Wunderground v.1.15,2013-02-02 00:14:00,
2013-02-01 16:19:00,64.9,35.1,30.12,East,83,0.0,1.0,33,0.00,,,0.00,Wunderground v.1.15,2013-02-02 00:19:00,
2013-02-01 16:24:00,64.7,34.9,30.12,ESE,109,0.0,2.0,33,0.00,,,0.00,Wunderground v.1.15,2013-02-02 00:24:00,
2013-02-01 16:29:00,64.3,35.3,30.12,ESE,121,0.0,5.0,34,0.00,,,0.00,Wunderground v.1.15,2013-02-02 00:29:00,
2013-02-01 16:34:00,64.0,35.0,30.12,ESE,113,0.0,2.0,34,0.00,,,0.00,Wunderground v.1.15,2013-02-02 00:34:00,
2013-02-01 16:39:00,63.7,35.5,30.12,ESE,105,0.0,2.0,35,0.00,,,0.00,Wunderground v.1.15,2013-02-02 00:39:00,
2013-02-01 16:44:00,63.5,35.3,30.12,ESE,107,1.0,6.0,35,0.00,,,0.00,Wunderground v.1.15,2013-02-02 00:44:00,
2013-02-01 16:49:00,63.2,35.1,30.13,ESE,110,0.0,6.0,35,0.00,,,0.00,Wunderground v.1.15,2013-02-02 00:49:00,
2013-02-01 16:54:00,62.9,35.5,30.12,ESE,119,0.0,2.0,36,0.00,,,0.00,Wunderground v.1.15,2013-02-02 00:54:00,
2013-02-01 16:59:00,62.5,35.9,30.12,East,100,1.0,4.0,37,0.00,,,0.00,Wunderground v.1.15,2013-02-02 00:59:00,
2013-02-01 17:04:00,62.1,36.2,30.12,East,84,0.0,1.0,38,0.00,,,0.00,Wunderground v.1.15,2013-02-02 01:04:00,
2013-02-01 17:09:00,61.7,35.8,30.13,East,84,0.0,1.0,38,0.00,,,0.00,Wunderground v.1.15,2013-02-02 01:09:00,
2013-02-01 17:14:00,61.3,36.1,30.13,East,80,0.0,1.0,39,0.00,,,0.00,Wunderground v.1.15,2013-02-02 01:14:00,
2013-02-01 17:19:00,60.9,35.8,30.13,East,80,0.0,1.0,39,0.00,,,0.00,Wunderground v.1.15,2013-02-02 01:19:00,
2013-02-01 17:24:00,60.4,35.9,30.13,East,90,0.0,1.0,40,0.00,,,0.00,Wunderground v.1.15,2013-02-02 01:24:00,
2013-02-01 17:29:00,60.1,35.7,30.13,ENE,74,0.0,1.0,40,0.00,,,0.00,Wunderground v.1.15,2013-02-02 01:29:00,
2013-02-01 17:34:00,59.8,35.4,30.14,East,101,0.0,1.0,40,0.00,,,0.00,Wunderground v.1.15,2013-02-02 01:34:00,
2013-02-01 17:39:00,59.6,35.9,30.14,East,94,0.0,1.0,41,0.00,,,0.00,Wunderground v.1.15,2013-02-02 01:39:00,
2013-02-01 17:44:00,59.3,35.6,30.14,ESE,110,0.0,1.0,41,0.00,,,0.00,Wunderground v.1.15,2013-02-02 01:44:00,
2013-02-01 17:49:00,59.0,35.3,30.14,ESE,119,1.0,1.0,41,0.00,,,0.00,Wunderground v.1.15,2013-02-02 01:49:00,
2013-02-01 17:54:00,59.0,35.3,30.14,ENE,71,0.0,1.0,41,0.00,,,0.00,Wunderground v.1.15,2013-02-02 01:54:00,
2013-02-01 17:59:00,59.0,35.3,30.14,ESE,107,0.0,1.0,41,0.00,,,0.00,Wunderground v.1.15,2013-02-02 01:59:00,
2013-02-01 18:04:00,59.1,35.4,30.15,East,93,0.0,1.0,41,0.00,,,0.00,Wunderground v.1.15,2013-02-02 02:04:00,
2013-02-01 18:09:00,59.0,35.3,30.15,ENE,61,1.0,1.0,41,0.00,,,0.00,Wunderground v.1.15,2013-02-02 02:09:00,
2013-02-01 18:15:00,59.0,35.3,30.15,East,86,0.0,1.0,41,0.00,,,0.00,Wunderground v.1.15,2013-02-02 02:15:00,
2013-02-01 18:20:00,59.0,35.3,30.16,East,94,0.0,0.0,41,0.00,,,0.00,Wunderground v.1.15,2013-02-02 02:20:00,
2013-02-01 18:25:00,59.0,35.3,30.16,East,94,0.0,5.0,41,0.00,,,0.00,Wunderground v.1.15,2013-02-02 02:25:00,
2013-02-01 18:30:00,59.0,35.3,30.16,East,101,0.0,0.0,41,0.00,,,0.00,Wunderground v.1.15,2013-02-02 02:30:00,
2013-02-01 18:35:00,58.5,35.5,30.16,ESE,113,0.0,0.0,42,0.00,,,0.00,Wunderground v.1.15,2013-02-02 02:35:00,
2013-02-01 18:40:00,58.0,35.6,30.16,ESE,111,0.0,0.0,43,0.00,,,0.00,Wunderground v.1.15,2013-02-02 02:40:00,
2013-02-01 18:45:00,57.7,35.3,30.17,East,91,0.0,0.0,43,0.00,,,0.00,Wunderground v.1.15,2013-02-02 02:45:00,
2013-02-01 18:50:00,57.5,35.2,30.17,ESE,112,0.0,0.0,43,0.00,,,0.00,Wunderground v.1.15,2013-02-02 02:50:00,
2013-02-01 18:55:00,57.3,35.0,30.17,ENE,76,0.0,0.0,43,0.00,,,0.00,Wunderground v.1.15,2013-02-02 02:55:00,
2013-02-01 19:00:00,57.2,35.5,30.17,East,92,0.0,0.0,44,0.00,,,0.00,Wunderground v.1.15,2013-02-02 03:00:00,
2013-02-01 19:05:00,56.9,35.2,30.14,East,87,0.0,0.0,44,0.00,,,0.00,Wunderground v.1.15,2013-02-02 03:05:00,
2013-02-01 19:10:00,56.8,35.1,30.14,East,87,0.0,0.0,44,0.00,,,0.00,Wunderground v.1.15,2013-02-02 03:10:00,
2013-02-01 19:15:00,56.6,35.5,30.14,East,87,0.0,0.0,45,0.00,,,0.00,Wunderground v.1.15,2013-02-02 03:15:00,
2013-02-01 19:20:00,56.5,35.4,30.14,ENE,78,0.0,0.0,45,0.00,,,0.00,Wunderground v.1.15,2013-02-02 03:20:00,
2013-02-01 19:25:00,56.5,35.4,30.14,ENE,78,0.0,0.0,45,0.00,,,0.00,Wunderground v.1.15,2013-02-02 03:25:00,
2013-02-01 19:30:00,56.4,35.9,30.15,ENE,78,0.0,0.0,46,0.00,,,0.00,Wunderground v.1.15,2013-02-02 03:30:00,
2013-02-01 19:35:00,56.3,35.8,30.15,ESE,106,0.0,0.0,46,0.00,,,0.00,Wunderground v.1.15,2013-02-02 03:35:00,
2013-02-01 19:40:00,56.2,35.7,30.15,ESE,105,0.0,0.0,46,0.00,,,0.00,Wunderground v.1.15,2013-02-02 03:40:00,
2013-02-01 19:45:00,56.0,35.5,30.15,ESE,105,0.0,0.0,46,0.00,,,0.00,Wunderground v.1.15,2013-02-02 03:45:00,
2013-02-01 19:50:00,56.0,35.5,30.15,East,91,0.0,0.0,46,0.00,,,0.00,Wunderground v.1.15,2013-02-02 03:50:00,
2013-02-01 19:55:00,56.1,35.6,30.15,East,92,0.0,0.0,46,0.00,,,0.00,Wunderground v.1.15,2013-02-02 03:55:00,
2013-02-01 20:01:00,56.2,35.7,30.16,East,97,0.0,0.0,46,0.00,,,0.00,Wunderground v.1.15,2013-02-02 04:01:00,
2013-02-01 20:06:00,56.4,35.3,30.12,ESE,103,0.0,0.0,45,0.00,,,0.00,Wunderground v.1.15,2013-02-02 04:06:00,
2013-02-01 20:11:00,56.5,35.4,30.12,ESE,103,0.0,0.0,45,0.00,,,0.00,Wunderground v.1.15,2013-02-02 04:11:00,
2013-02-01 20:16:00,56.5,35.4,30.12,East,84,0.0,2.0,45,0.00,,,0.00,Wunderground v.1.15,2013-02-02 04:16:00,
2013-02-01 20:21:00,56.6,35.5,30.12,East,93,0.0,4.0,45,0.00,,,0.00,Wunderground v.1.15,2013-02-02 04:21:00,
2013-02-01 20:26:00,56.7,35.6,30.12,ESE,110,0.0,4.0,45,0.00,,,0.00,Wunderground v.1.15,2013-02-02 04:26:00,
2013-02-01 20:31:00,56.7,35.6,30.12,East,95,0.0,1.0,45,0.00,,,0.00,Wunderground v.1.15,2013-02-02 04:31:00,
2013-02-01 20:36:00,56.7,35.0,30.11,ESE,117,2.0,3.0,44,0.00,,,0.00,Wunderground v.1.15,2013-02-02 04:36:00,
2013-02-01 20:41:00,56.9,35.2,30.12,ESE,113,0.0,1.0,44,0.00,,,0.00,Wunderground v.1.15,2013-02-02 04:41:00,
2013-02-01 20:46:00,57.1,35.4,30.12,East,101,0.0,1.0,44,0.00,,,0.00,Wunderground v.1.15,2013-02-02 04:46:00,
2013-02-01 20:51:00,57.2,35.5,30.12,East,79,1.0,1.0,44,0.00,,,0.00,Wunderground v.1.15,2013-02-02 04:51:00,
2013-02-01 20:57:00,57.1,35.4,30.12,East,99,0.0,1.0,44,0.00,,,0.00,Wunderground v.1.15,2013-02-02 04:57:00,
2013-02-01 21:00:00,57.1,35.4,30.12,East,94,0.0,0.0,44,0.00,,,0.00,Wunderground v.1.15,2013-02-02 05:00:00,
2013-02-01 21:05:00,57.3,35.6,30.12,East,92,1.0,1.0,44,0.00,,,0.00,Wunderground v.1.15,2013-02-02 05:05:00,
2013-02-01 21:10:00,57.4,35.6,30.12,East,84,0.0,3.0,44,0.00,,,0.00,Wunderground v.1.15,2013-02-02 05:10:00,
2013-02-01 21:15:00,57.3,36.1,30.12,East,98,0.0,4.0,45,0.00,,,0.00,Wunderground v.1.15,2013-02-02 05:15:00,
2013-02-01 21:20:00,57.2,36.0,30.12,East,88,0.0,0.0,45,0.00,,,0.00,Wunderground v.1.15,2013-02-02 05:20:00,
2013-02-01 21:25:00,56.9,35.8,30.12,East,94,0.0,0.0,45,0.00,,,0.00,Wunderground v.1.15,2013-02-02 05:25:00,
2013-02-01 21:30:00,56.4,35.9,30.13,East,99,0.0,0.0,46,0.00,,,0.00,Wunderground v.1.15,2013-02-02 05:30:00,
2013-02-01 21:35:00,56.2,35.7,30.13,East,92,0.0,1.0,46,0.00,,,0.00,Wunderground v.1.15,2013-02-02 05:35:00,
2013-02-01 21:40:00,56.2,35.7,30.13,East,99,0.0,0.0,46,0.00,,,0.00,Wunderground v.1.15,2013-02-02 05:40:00,
2013-02-01 21:45:00,56.2,35.1,30.14,East,98,1.0,5.0,45,0.00,,,0.00,Wunderground v.1.15,2013-02-02 05:45:00,
2013-02-01 21:50:00,56.2,35.1,30.14,East,98,1.0,1.0,45,0.00,,,0.00,Wunderground v.1.15,2013-02-02 05:50:00,
2013-02-01 21:56:00,56.3,35.2,30.14,East,90,0.0,3.0,45,0.00,,,0.00,Wunderground v.1.15,2013-02-02 05:56:00,
2013-02-01 22:01:00,56.3,35.2,30.14,ESE,117,0.0,3.0,45,0.00,,,0.00,Wunderground v.1.15,2013-02-02 06:01:00,
2013-02-01 22:06:00,56.2,35.1,30.13,East,80,0.0,3.0,45,0.00,,,0.00,Wunderground v.1.15,2013-02-02 06:06:00,
2013-02-01 22:11:00,56.1,35.0,30.13,East,98,0.0,0.0,45,0.00,,,0.00,Wunderground v.1.15,2013-02-02 06:11:00,
2013-02-01 22:16:00,56.1,35.0,30.13,East,79,0.0,0.0,45,0.00,,,0.00,Wunderground v.1.15,2013-02-02 06:16:00,
2013-02-01 22:21:00,56.0,34.9,30.13,ESE,113,0.0,3.0,45,0.00,,,0.00,Wunderground v.1.15,2013-02-02 06:21:00,
2013-02-01 22:26:00,55.9,34.8,30.13,East,99,0.0,3.0,45,0.00,,,0.00,Wunderground v.1.15,2013-02-02 06:26:00,
2013-02-01 22:31:00,55.8,35.3,30.13,East,88,0.0,0.0,46,0.00,,,0.00,Wunderground v.1.15,2013-02-02 06:31:00,
2013-02-01 22:36:00,55.8,35.3,30.13,East,94,0.0,1.0,46,0.00,,,0.00,Wunderground v.1.15,2013-02-02 06:36:00,
2013-02-01 22:41:00,55.8,35.3,30.13,East,94,0.0,0.0,46,0.00,,,0.00,Wunderground v.1.15,2013-02-02 06:41:00,
2013-02-01 22:46:00,55.8,35.3,30.13,East,80,0.0,4.0,46,0.00,,,0.00,Wunderground v.1.15,2013-02-02 06:46:00,
2013-02-01 22:51:00,55.8,35.3,30.13,East,82,0.0,1.0,46,0.00,,,0.00,Wunderground v.1.15,2013-02-02 06:51:00,
2013-02-01 22:56:00,55.9,34.8,30.13,East,92,0.0,6.0,45,0.00,,,0.00,Wunderground v.1.15,2013-02-02 06:56:00,
2013-02-01 23:01:00,55.9,34.8,30.13,East,88,1.0,4.0,45,0.00,,,0.00,Wunderground v.1.15,2013-02-02 07:01:00,
2013-02-01 23:06:00,56.0,34.9,30.13,East,91,0.0,4.0,45,0.00,,,0.00,Wunderground v.1.15,2013-02-02 07:06:00,
2013-02-01 23:11:00,56.1,35.0,30.13,East,94,0.0,1.0,45,0.00,,,0.00,Wunderground v.1.15,2013-02-02 07:11:00,
2013-02-01 23:16:00,56.0,34.9,30.13,ESE,119,0.0,4.0,45,0.00,,,0.00,Wunderground v.1.15,2013-02-02 07:16:00,
2013-02-01 23:21:00,55.9,34.8,30.13,ESE,108,0.0,2.0,45,0.00,,,0.00,Wunderground v.1.15,2013-02-02 07:21:00,
2013-02-01 23:26:00,55.9,34.8,30.13,ESE,117,0.0,2.0,45,0.00,,,0.00,Wunderground v.1.15,2013-02-02 07:26:00,
2013-02-01 23:31:00,55.8,34.8,30.13,East,94,0.0,0.0,45,0.00,,,0.00,Wunderground v.1.15,2013-02-02 07:31:00,
2013-02-01 23:36:00,55.6,34.6,30.13,East,83,0.0,1.0,45,0.00,,,0.00,Wunderground v.1.15,2013-02-02 07:36:00,
2013-02-01 23:41:00,55.4,34.9,30.13,NE,55,1.0,1.0,46,0.00,,,0.00,Wunderground v.1.15,2013-02-02 07:41:00,
2013-02-01 23:47:00,55.3,34.9,30.13,East,94,0.0,3.0,46,0.00,,,0.00,Wunderground v.1.15,2013-02-02 07:47:00,
2013-02-01 23:52:00,55.1,34.7,30.13,SSE,147,0.0,0.0,46,0.00,,,0.00,Wunderground v.1.15,2013-02-02 07:52:00,
2013-02-01 23:57:00,55.0,34.6,30.13,SE,134,0.0,1.0,46,0.00,,,0.00,Wunderground v.1.15,2013-02-02 07:57:00,